DECAYED

CZ-6A DEB, 60888 (Decayed)

Orbit data source: Space-Track

CZ-6A DEB, 60888 was space debris in LEO originally from a launch on Tue, 06 Aug 2024 UTC launched from the Taiyaun Space Center, China (TSC). Debris objects in space refer to the collection of defunct objects orbiting the Earth. Examples of debris include non-operational satellites, rocket bodies, and fragments generated from explosions, collisions, or faulty payload assembly.

Not visible in the next 10 days
Identifier
60888, 2024-140KT
Orbit
Decayed
Country
Flag of CNCN / PRC
Related business
Manufacturer
SAST
Mission
Decayed spacecraft
Bus & Motor
Unknown
Mass
Unknown
Launch date (UTC)
2024-08-06 (2 years ago)
Launch vehicle
Unknown
Launch site
Taiyaun Space Center, China (TSC)
Object type
Payload
Rocket body
Debris
Shape & HBR
Unknown shape, 0.1 m
Radar Cross Section
Medium (>0.1 m² and <1 m²)

Expand to show TLE details & history
Last TLE update: 11 months ago

TLE from 11 months ago
0 CZ-6A DEB
1 60888U 24140KT  25187.82601102  .06940567  70322-1  26457-1 0  9991
2 60888  88.9089 308.0172 0034423 305.4509  54.3563 15.91328836 46830
Epoch: 2025-07-06T19:49Z
TLE epoch observation values (Epoch: 2025-07-06T19:49:27.352Z)
Latitude
0.00003°
Longitude
85.6091°
Altitude
288.513 km
Speed
7.742 km/s
True Right ascension
20h 32m 04s
True Declination
0° 00' 00"
Sunlit
Object was in full shadow at epoch
Visualization orbit readout
Latitude
Unknown
Longitude
Unknown
Altitude
Unknown
Speed
Unknown
Apparent Right ascension
Unknown
Apparent Declination
Unknown
Sunlit
N/A
Visualization observer readout
Local Sidereal Time
07:24:02
Azimuth
Unknown
Elevation
Unknown
Doppler factor
Unknown
Orbital elements
Apogee altitude
318.246 km
Perigee altitude
272.302 km
Semi-major axis
6,673.411 km
Eccentricity
0.00344
Inclination
88.9089°
RAAN
308.0172°
Arg. of periapsis
305.4509°
True anomaly
54.67766°
Mean anomaly
54.3563°
Eccentric anomaly
54.5169°
Mean motion
3.98127 °/min
Orbital period
90.42 mins
BSTAR
0.026457
Loading maneuver chart data...
Computing Atmospheric mass density...
Loading historical data...
Loading historical data...
Loading historical data...
Loading historical data...
Loading historical data...
Loading historical data...
Loading historical data...

Documentation

Showing up to 5 results
|